KDUC

Details ICAO KDUC (DUC)
Name HALLIBURTON FLD
Region United States
Timezone America/Chicago (UTC-5.0)
Plans Departing 2
Arriving 1
Stats Elevation 1,113 ft / 339 m (AMSL)
Location 34.470873° -97.959851°
Runways 1
Magnetic Variation 3.945° E
Sunrise 2018-05-22 11:26:14 UTC / 2018-05-22 06:26:14 Local
Sunset 2018-05-23 01:33:40 UTC / 2018-05-22 20:33:40 Local
Advertisement - Login to hide

Runways

ID Width Length Bearing (true) Bearing (mag) Surface Threshold Offset Overrun Length
17 100 ft / 30 m 6,670 ft / 2,033 m 179.32° 175.37° Concrete 0 ft / 0 m 0 ft / 0 m
35 100 ft / 30 m 6,670 ft / 2,033 m 359.32° 355.37° Concrete 325 ft / 99 m 0 ft / 0 m

Approach Navaids

Runway Type Ident Frequency Range Bearing (true) Bearing (mag) Slope Elevation
35 Localiser IDUC 111.50 MHz 18 nm / 33 km 359.30° 355.36° - 1,113 ft / 339 m (AMSL)

Map

Weather


0- 5 10 15 20 25 30 35+ Temperature / ° C

Clouds and Precipitation
Forecast for 2018-05-22 12:00 UTC. Updated 3 hours ago

Ground ~20,000 ft ~40,000 ft Winds

METAR

KDUC 221415Z AUTO 20003KT 10SM CLR 24/20 A3006 RMK AO2 T02380204

TAF

Not found

Frequencies

Recorded 119.07 MHz AWOS 3
Clearance 118.40 MHz FORT SILL CLNC DEL
Unicom 122.80 MHz CTAF/UNICOM
Approach 118.60 MHz FORT SILL APP/DEP
Warning: Do not use this data for real-world aviation or navigation. No guarantee of current accuracy is given.